Content
SEND FEEDBACK

Daily
Averages
Monthly
Summary
United States of America

STOCKTON, ILLINOIS


Home > North America > United States > Illinois
Elevation: 917 feet     Latitude: 42 20N     Longitude: 090 00W

WEATHER
 
SELECT A DAY
Number of Records: 258,670;   Date Range: 1/21/04 - 9/21/14
 
SHARE

PRINT THIS DATA

[ ← Previous Day ]
WEATHER ALMANAC - FEBRUARY 13, 2013
[ Next Day → ]
[ °C ]   °F
Weather ElementAverageHighLow
Temperature33 °F41.2 °F (3:15 pm)23.2 °F (4:15 am)
Dewpoint28.3 °F32 °F (9:15 pm)21.9 °F (4:15 am)
Humidity83.6 %96 % (1:35 am)63 % (12:15 pm)
Barometer29.76 in29.87 in (12:35 am)29.68 in (11:35 pm)
Wind Speed4.6 mph10.4 mph (1:55 pm)
Weather ElementAverage
Visibility8.6 mi
Wind DirectionSSE (166.5 °)

Weather ElementTotal
Precipitation---
Heating Degree Days32.8 (Base 65)
Averaged from 71 records on February 13, 2013
WEATHER CONDITIONS BREAKOUT
WIND DIRECTION BREAKOUT
WEATHER BY HOUR - FEBRUARY 13, 2013
[ °C ]   °F
Local TimeTemperatureDewpointHumidityBarometerVisibilityWind DirectionWind SpeedGust SpeedPrecipitationEventsConditions
12:35 AM26.4 °F24.8 °F94 %29.87 in7.0 miSSE (160°)4.6 mphClear
12:55 AM26.1 °F24.8 °F95 %29.86 in7.0 miSE (140°)3.5 mphClear
1:15 AM25.9 °F24.3 °F94 %29.86 in7.0 miSSE (150°)3.5 mphClear
1:35 AM26.4 °F25.3 °F96 %29.86 in7.0 miSSE (150°)3.5 mphClear
1:55 AM25.7 °F24.4 °F95 %29.85 in5.0 miSE (140°)3.5 mphClear
2:15 AM25.2 °F23.9 °F95 %29.85 in7.0 miSSE (150°)4.6 mphClear
2:35 AM25.5 °F24.1 °F94 %29.83 in7.0 miSE (130°)4.6 mphClear
2:55 AM25.3 °F23.9 °F94 %29.83 in7.0 miESE (120°)3.5 mphClear
3:15 AM25.7 °F24.3 °F94 %29.82 in7.0 miSSE (150°)3.5 mphClear
3:35 AM25.2 °F23.4 °F93 %29.82 in7.0 miSSE (160°)3.5 mphClear
3:55 AM24.8 °F23.4 °F94 %29.81 in7.0 miSSE (160°)4.6 mphClear
4:15 AM23.2 °F21.9 °F95 %29.80 in5.0 miSSE (160°)3.5 mphClear
4:35 AM24.3 °F23.2 °F96 %29.79 in5.0 miSSE (150°)3.5 mphClear
4:55 AM24.4 °F23.4 °F96 %29.79 in5.0 miSSE (150°)3.5 mphClear
5:15 AM25.7 °F24.4 °F95 %29.79 in7.0 miSouth (170°)3.5 mphClear
5:35 AM24.4 °F23.0 °F94 %29.78 in7.0 miSSE (160°)4.6 mphClear
5:55 AM24.3 °F23.4 °F96 %29.78 in7.0 miCalmClear
6:15 AM25.3 °F24.3 °F96 %29.78 in7.0 miSSE (160°)3.5 mphClear
6:35 AM23.5 °F22.3 °F95 %29.77 in7.0 miSSE (160°)4.6 mphClear
6:55 AM23.9 °F22.6 °F95 %29.77 in5.0 miSouth (170°)3.5 mphClear
7:15 AM24.6 °F23.7 °F96 %29.77 in4.0 miSouth (180°)3.5 mphClear
7:35 AM24.1 °F23.2 °F96 %29.77 in4.0 miSSE (160°)3.5 mphClear
7:55 AM26.1 °F25.0 °F96 %29.77 in4.0 miCalmClear
8:15 AM28.4 °F26.8 °F94 %29.78 in5.0 miCalmClear
8:35 AM29.3 °F27.0 °F91 %29.78 in7.0 miCalmClear
8:55 AM30.0 °F27.0 °F88 %29.78 in7.0 miCalmClear
9:15 AM31.6 °F27.9 °F86 %29.77 in7.0 miCalmClear
9:35 AM32.0 °F27.7 °F84 %29.77 in10.0 miCalmClear
9:55 AM32.9 °F28.4 °F84 %29.78 in10.0 miCalmClear
10:15 AM33.8 °F28.4 °F81 %29.78 in10.0 miCalmClear
10:35 AM35.1 °F28.9 °F78 %29.77 in10.0 miWSW (240°)3.5 mphClear
10:55 AM36.7 °F29.3 °F75 %29.77 in10.0 miSW (220°)3.5 mphClear
11:15 AM37.0 °F29.8 °F75 %29.78 in10.0 miWSW (240°)3.5 mphClear
11:35 AM38.7 °F30.6 °F73 %29.77 in10.0 miSW (230°)4.6 mphClear
11:55 AM39.6 °F30.2 °F69 %29.76 in10.0 miWSW (240°)4.6 mphClear
12:15 PM40.3 °F28.6 °F63 %29.74 in10.0 miWest (260°)5.8 mphClear
12:35 PM40.6 °F29.5 °F64 %29.75 in10.0 miWest (270°)6.9 mphClear
12:55 PM40.6 °F30.0 °F66 %29.75 in10.0 miWSW (250°)6.9 mphClear
1:15 PM41.0 °F30.2 °F65 %29.75 in10.0 miWSW (250°)9.2 mphClear
1:35 PM40.3 °F30.6 °F68 %29.74 in10.0 miWest (260°)9.2 mphClear
1:55 PM40.5 °F30.6 °F68 %29.74 in10.0 miWSW (250°)10.4 mphScattered Clouds
2:15 PM40.1 °F31.3 °F71 %29.74 in10.0 miWSW (250°)6.9 mphScattered Clouds
2:35 PM40.8 °F30.9 °F68 %29.74 in10.0 miWSW (250°)5.8 mphScattered Clouds
2:55 PM41.0 °F30.6 °F66 %29.74 in10.0 miWSW (240°)6.9 mphScattered Clouds
3:15 PM41.2 °F30.7 °F66 %29.74 in10.0 miWest (260°)6.9 mphClear
3:35 PM40.5 °F30.7 °F68 %29.74 in10.0 miWSW (250°)6.9 mphMostly Cloudy
3:55 PM40.1 °F31.1 °F70 %29.74 in10.0 miWSW (250°)5.8 mphOvercast
4:15 PM40.8 °F31.1 °F68 %29.74 in10.0 miWSW (240°)4.6 mphOvercast
4:35 PM41.0 °F30.7 °F67 %29.74 in10.0 miWSW (250°)5.8 mphOvercast
4:55 PM40.1 °F30.7 °F69 %29.74 in10.0 miWSW (240°)6.9 mphOvercast
5:15 PM39.2 °F30.7 °F72 %29.74 in10.0 miWSW (240°)5.8 mphOvercast
5:35 PM38.5 °F30.9 °F74 %29.75 in10.0 miWSW (250°)3.5 mphOvercast
5:55 PM38.5 °F31.1 °F75 %29.75 in10.0 miSSW (210°)3.5 mphOvercast
6:15 PM37.6 °F31.6 °F79 %29.75 in10.0 miSSW (200°)5.8 mphOvercast
6:35 PM37.4 °F31.6 °F80 %29.75 in10.0 miSouth (190°)5.8 mphOvercast
6:55 PM36.9 °F31.6 °F81 %29.75 in10.0 miSouth (190°)5.8 mphOvercast
7:15 PM36.9 °F31.6 °F81 %29.75 in10.0 miSouth (180°)5.8 mphOvercast
7:35 PM35.8 °F31.5 °F84 %29.74 in10.0 miSouth (170°)5.8 mphOvercast
7:55 PM34.3 °F31.1 °F88 %29.74 in10.0 miSSE (150°)4.6 mphOvercast
8:15 PM34.7 °F31.5 °F88 %29.74 in10.0 miSSE (150°)5.8 mphOvercast
8:35 PM34.9 °F31.8 °F89 %29.73 in10.0 miSSE (160°)6.9 mphOvercast
8:55 PM34.0 °F31.1 °F89 %29.73 in10.0 miSSE (160°)5.8 mphMostly Cloudy
9:15 PM34.3 °F32.0 °F91 %29.72 in10.0 miSSE (160°)5.8 mphMostly Cloudy
9:35 PM34.9 °F32.0 °F89 %29.72 in10.0 miSSE (150°)4.6 mphMostly Cloudy
9:55 PM35.1 °F32.0 °F89 %29.71 in10.0 miSSE (160°)8.1 mphMostly Cloudy
10:15 PM35.2 °F31.6 °F87 %29.71 in10.0 miSSE (150°)6.9 mphMostly Cloudy
10:35 PM34.9 °F31.8 °F89 %29.70 in10.0 miSSE (160°)5.8 mphMostly Cloudy
10:55 PM35.6 °F31.8 °F86 %29.70 in10.0 miSSE (150°)6.9 mphOvercast
11:15 PM35.6 °F31.6 °F85 %29.69 in10.0 miSSE (160°)4.6 mphOvercast
11:35 PM35.6 °F32.0 °F87 %29.68 in10.0 miSSE (160°)6.9 mphOvercast
11:55 PM35.6 °F32.0 °F87 %29.68 in10.0 miSSE (150°)8.1 mphOvercast
Hourly data recorded from KSFY, located miles away from Stockton, Illinois







STORIES FROM OUR PARTNERS